GFSNE_925_thetae_159.txt.gz
Theta_e
320 320 320 321 316 314 317 317 315 316 316 310 309 310 310 309 308 307 308 307 308 307 307 306 302 300 299 300 301 301 301 301 301 301 301 302 303 303
319 319 319 317 316 314 317 316 314 314 316 309 306 306 307 306 306 307 307 306 305 304 301 300 299 299 297 297 297 299 299 299 299 299 299 299 301 303
317 317 315 314 313 315 313 312 312 311 312 305 305 304 304 304 305 305 305 304 303 303 301 300 299 297 297 297 297 299 298 297 297 297 298 299 301 301
316 317 317 317 316 313 312 311 311 311 312 306 303 302 303 301 303 303 302 300 301 300 299 299 299 299 298 298 298 298 298 296 296 297 298 298 298 298
318 318 317 315 313 312 312 313 313 312 312 310 305 304 303 302 301 299 298 298 297 297 296 296 298 299 299 298 298 297 296 294 296 296 297 296 296 296
317 317 315 314 314 314 313 312 312 312 311 309 305 302 300 298 298 297 296 296 295 295 296 296 298 298 298 298 297 296 294 294 295 294 295 295 295 295
314 314 313 313 313 312 312 311 310 308 306 303 300 298 297 297 297 296 296 295 294 294 294 294 294 294 294 294 295 295 295 294 294 294 294 293 294 295
311 310 309 309 309 308 307 303 301 301 300 299 297 297 295 295 295 295 295 295 296 293 293 294 293 293 292 292 292 294 294 293 293 292 292 293 293 293
309 308 306 305 304 304 303 301 299 298 298 298 296 295 294 293 293 293 293 293 294 292 291 293 291 291 291 292 293 294 292 291 291 291 292 292 292 292
306 304 304 303 302 300 297 295 294 294 294 294 293 293 293 292 291 291 292 291 291 291 290 293 290 291 290 290 293 291 290 290 290 290 291 291 291 291
302 302 301 299 297 297 297 295 295 295 295 294 294 294 292 291 290 291 291 292 292 291 290 290 290 290 289 289 289 290 289 288 289 289 290 291 291 291
300 299 299 299 297 296 296 295 296 296 295 294 294 292 292 292 290 290 290 290 290 291 290 290 290 290 290 289 289 289 289 288 288 288 288 288 290 291
298 298 298 297 296 294 294 295 295 294 294 293 292 291 291 291 291 290 289 290 290 290 290 290 290 290 290 290 289 289 288 288 288 288 288 289 289 289
296 297 296 296 297 297 296 296 296 294 293 292 292 291 291 290 290 290 290 290 290 290 290 289 290 289 289 289 289 288 288 289 288 288 288 288 288 288
296 295 294 293 294 295 294 293 292 292 291 291 291 290 290 290 290 290 290 290 290 290 289 288 289 289 288 288 288 288 288 288 288 288 288 288 288 288
292 291 291 291 290 290 290 290 291 291 290 290 290 290 290 290 290 290 290 290 290 289 289 288 289 288 288 288 288 288 288 288 288 288 287 287 288 288
291 290 290 290 289 289 289 288 288 289 289 289 289 289 289 289 289 289 289 289 289 289 288 288 288 287 287 287 287 288 288 287 287 287 287 287 288 288
291 291 290 290 290 289 289 289 288 289 289 289 289 288 288 288 288 288 287 288 288 287 287 288 287 287 287 287 287 288 287 287 287 287 287 286 286 287
292 291 291 290 289 289 288 288 288 288 288 288 287 287 288 288 287 287 287 287 287 287 287 287 287 287 287 288 287 287 286 286 286 286 286 286 287 288
292 291 290 290 289 289 288 288 288 288 287 286 286 286 285 285 285 286 287 287 287 287 286 286 286 286 287 287 286 286 285 285 285 285 286 286 286 287
294 291 291 290 289 289 288 288 288 287 287 287 286 286 285 285 285 285 286 286 286 286 286 286 285 285 285 286 286 286 285 284 284 284 285 285 287 288
294 291 292 291 290 289 288 287 287 287 286 286 286 285 285 285 285 285 285 285 285 286 285 286 286 285 285 285 285 285 284 284 284 284 283 284 285 286
293 291 292 291 290 289 288 287 287 286 286 286 285 285 284 284 284 284 284 284 284 285 285 285 285 285 284 284 284 284 284 284 284 284 284 284 283 284

GFSNE_925_thetae_162.txt.gz
Theta_e
322 321 319 318 320 316 317 317 318 320 320 318 314 311 310 310 310 311 312 311 309 309 309 307 306 302 300 300 300 301 301 301 301 301 301 301 303 304
322 320 319 319 319 316 315 314 316 316 318 314 311 308 308 306 310 309 310 309 308 306 305 303 300 300 299 298 297 298 300 299 299 299 300 300 302 304
321 319 318 319 316 316 316 315 314 313 314 309 307 304 304 306 306 307 307 306 305 305 304 301 300 300 298 297 297 299 299 298 298 298 299 299 301 301
315 315 316 317 316 316 315 315 314 312 312 309 307 305 303 303 304 304 303 303 302 302 301 300 300 300 299 298 299 299 298 297 296 298 299 299 298 298
314 315 315 316 315 314 313 312 311 312 313 311 305 303 303 302 302 302 301 300 299 298 298 297 298 300 299 299 298 297 296 295 295 296 296 297 296 296
316 317 316 316 316 313 313 313 312 311 311 309 304 302 301 300 300 300 298 296 296 296 297 297 298 299 298 298 298 297 295 294 295 295 295 295 295 296
316 315 315 313 313 312 311 310 310 309 308 306 302 299 298 297 298 298 299 299 297 297 297 297 296 296 296 296 296 296 296 295 295 294 294 294 294 294
311 311 311 310 310 310 308 304 304 304 302 300 301 302 299 299 299 299 300 299 300 296 295 296 295 296 295 295 294 293 295 294 293 293 293 293 293 293
310 309 306 305 305 304 303 302 300 299 300 301 301 300 299 297 297 297 297 297 298 296 294 295 294 294 294 293 292 294 293 292 292 292 292 292 292 292
307 305 304 303 301 300 299 298 297 296 296 296 296 295 294 294 294 294 295 295 294 294 293 294 294 294 293 293 292 293 292 291 290 291 291 291 292 292
304 303 302 300 298 298 299 298 297 297 296 295 295 293 292 291 291 293 293 294 294 293 292 292 293 292 292 292 292 291 291 290 289 290 290 290 291 291
302 301 301 300 297 297 298 298 298 297 296 296 294 294 294 293 291 291 291 292 292 292 292 291 291 291 291 291 291 291 291 290 289 289 289 289 290 291
300 299 298 297 295 294 297 298 297 296 295 295 294 293 293 293 292 292 291 291 291 291 291 291 291 291 290 290 290 290 290 290 290 290 290 289 289 289
298 298 298 298 297 297 297 297 295 295 295 294 294 293 293 292 291 291 291 291 291 291 291 291 291 290 290 290 289 289 289 289 290 289 290 290 289 289
297 297 297 297 295 295 294 294 294 294 294 293 293 292 292 291 291 291 291 291 291 291 290 290 290 290 289 289 289 289 289 289 289 289 289 289 289 289
294 294 294 293 293 292 292 292 292 292 292 292 292 291 291 290 290 290 291 290 290 291 290 290 289 289 289 289 288 289 289 289 289 289 289 288 289 290
293 293 293 292 292 291 291 291 291 291 291 291 291 290 289 289 289 290 289 289 290 289 289 289 289 288 288 288 288 289 289 288 288 287 287 288 288 289
294 294 294 293 292 292 291 291 291 290 290 290 289 288 288 288 288 289 289 289 289 288 288 288 288 287 287 288 288 288 288 287 287 287 287 287 288 288
294 294 294 293 292 291 291 291 290 290 289 289 288 288 288 288 287 287 287 287 288 288 288 287 287 288 288 289 288 287 287 286 286 286 286 287 287 288
294 294 294 293 292 291 291 290 290 289 289 288 287 287 286 286 286 286 286 287 287 287 287 287 287 287 287 287 286 286 286 286 286 286 286 286 286 287
294 293 294 292 292 291 290 290 290 289 289 288 287 287 286 285 286 286 286 286 286 286 287 286 286 286 286 286 287 286 286 286 285 285 285 285 286 287
295 293 293 292 291 291 290 290 289 289 288 288 287 286 285 286 285 285 284 284 284 285 285 285 286 286 286 285 285 285 285 286 285 285 285 284 285 285
295 293 293 292 291 290 290 289 289 288 287 286 286 285 284 284 284 284 284 284 284 284 284 284 284 284 284 284 284 285 285 285 285 285 285 285 284 284

GFSNE_925_thetae_165.txt.gz
Theta_e
323 321 319 319 318 319 319 319 320 320 318 317 316 315 314 313 313 313 313 313 310 310 310 309 307 305 302 302 300 299 301 302 301 301 301 301 301 304
323 321 320 318 318 318 317 318 318 319 320 317 315 311 311 310 311 311 312 312 309 309 308 305 303 301 300 299 298 298 300 300 299 300 300 300 304 304
323 322 320 318 317 317 316 314 314 313 315 311 310 307 307 308 309 309 309 309 307 306 306 304 301 300 299 298 297 299 300 299 298 298 299 300 301 301
322 320 317 317 318 316 315 314 314 314 313 313 307 306 305 305 305 305 306 306 305 304 304 301 300 301 300 299 299 298 299 298 296 298 299 299 298 298
319 317 314 316 317 316 317 315 313 312 311 310 306 305 304 303 303 303 303 303 301 301 301 299 298 299 301 300 299 298 297 296 295 295 296 296 296 296
315 315 314 314 315 315 314 313 312 312 312 311 306 303 302 302 301 301 301 301 299 297 298 299 300 299 299 298 298 298 297 295 295 295 295 295 295 295
314 314 314 314 315 314 313 312 312 311 309 306 303 301 300 299 300 300 299 299 298 298 298 298 298 298 298 296 296 296 296 296 295 295 294 294 294 294
312 312 312 312 313 312 311 310 309 308 305 302 302 303 301 301 300 301 301 301 301 297 297 297 297 296 296 296 295 295 295 296 294 293 293 293 293 293
311 310 309 307 306 304 304 302 301 301 302 303 301 300 299 297 298 299 299 298 298 296 295 295 296 295 295 295 294 293 295 294 293 292 292 292 292 292
308 306 304 303 302 301 299 298 297 297 297 297 296 295 294 294 295 294 295 295 295 295 293 294 295 294 294 293 293 292 293 292 291 291 291 291 291 291
305 303 301 300 300 300 299 298 298 297 297 295 294 294 293 292 293 294 294 295 295 294 292 292 292 292 292 292 292 292 290 291 290 290 290 291 291 291
302 301 300 299 298 299 299 299 299 297 297 296 295 295 294 294 292 292 292 293 292 293 292 291 292 291 291 292 291 291 290 291 291 290 290 290 290 290
300 299 298 297 295 298 299 299 298 297 296 295 295 294 294 293 293 292 291 291 291 291 292 291 291 291 291 291 290 290 290 290 290 290 290 290 290 289
299 299 298 298 298 298 297 297 296 296 296 295 295 294 293 292 292 291 291 291 291 291 291 291 291 290 291 291 290 289 289 289 289 290 289 289 290 290
299 298 297 296 296 295 295 294 295 295 294 294 294 293 292 291 291 291 291 291 291 291 291 290 290 290 290 290 289 289 289 289 289 289 289 289 289 289
296 296 295 293 293 293 293 293 293 292 293 293 292 291 290 290 290 290 290 290 290 290 290 290 290 289 289 289 288 288 289 289 289 289 288 288 288 288
294 294 294 293 293 292 292 292 292 292 292 291 291 289 289 288 289 290 289 289 289 289 289 289 289 288 288 288 288 288 289 289 288 287 287 287 287 288
296 296 295 294 293 293 292 292 291 291 291 290 289 288 288 289 288 289 288 288 288 288 289 289 288 287 288 288 289 288 288 288 287 286 286 287 287 288
296 296 295 294 293 292 292 291 291 290 289 289 288 288 287 287 287 287 287 287 288 288 288 287 288 288 288 288 288 287 287 287 287 286 286 286 287 286
296 296 295 294 293 292 291 291 291 290 289 288 288 287 286 286 286 286 286 286 286 286 286 287 287 287 287 287 287 286 287 286 287 286 286 285 286 286
295 296 295 293 293 292 291 291 290 290 289 288 287 287 286 285 286 285 285 285 285 285 286 286 286 286 286 286 287 286 285 285 286 285 285 285 285 285
295 295 295 293 292 292 291 290 290 289 289 287 286 286 285 285 285 284 284 284 284 284 285 285 285 285 285 285 285 285 285 285 286 285 285 285 285 285
295 295 294 293 292 292 291 290 290 289 287 286 285 285 285 285 284 284 284 284 284 284 284 284 285 285 285 285 285 285 284 284 285 285 284 285 285 284

GFSNE_925_thetae_168.txt.gz
Theta_e
323 322 321 320 319 318 318 318 318 317 316 317 316 316 317 316 315 315 314 313 312 310 311 310 308 307 304 303 302 300 301 301 301 302 302 302 302 303
324 323 321 320 319 318 318 319 318 318 317 316 314 315 314 313 312 312 312 312 312 311 311 308 306 303 302 301 299 298 299 300 300 299 300 300 302 304
324 323 321 320 318 319 319 318 318 315 312 309 310 310 309 309 310 310 311 311 309 308 307 306 305 302 301 300 298 298 300 299 298 298 299 300 300 301
324 323 321 318 317 318 318 317 314 314 314 311 307 308 307 307 307 307 308 308 307 306 305 305 302 302 301 300 299 299 299 298 296 298 298 299 298 298
323 320 317 316 316 317 316 315 316 316 314 312 307 305 305 305 305 304 305 305 305 304 303 302 301 300 301 301 300 299 298 297 295 295 295 296 297 297
317 316 315 315 316 315 315 316 314 311 311 310 306 303 303 302 302 302 302 302 301 299 298 299 300 299 299 300 298 299 298 297 295 295 295 295 295 295
314 313 314 314 315 316 315 312 311 311 309 306 304 302 301 300 301 300 300 299 299 298 298 298 298 297 297 297 296 297 298 296 295 295 295 294 294 294
313 313 313 312 312 311 309 309 308 308 306 303 302 301 301 300 300 300 300 301 300 298 297 297 297 297 296 296 296 295 295 295 295 294 293 293 293 293
311 310 308 306 307 305 303 301 301 302 302 301 298 296 296 296 297 297 297 297 296 294 295 294 295 295 295 295 294 293 293 294 293 293 292 292 292 292
307 305 304 302 300 299 298 297 297 297 297 297 295 293 293 294 294 294 294 295 295 294 293 293 292 293 293 293 293 293 292 293 292 291 291 291 291 291
301 301 300 300 300 298 297 297 296 296 296 295 295 294 294 294 293 293 292 292 292 293 291 291 292 291 291 292 292 291 291 290 291 292 291 291 291 291
300 300 299 300 300 299 299 298 296 296 295 295 294 295 293 293 292 292 291 291 291 291 292 290 291 291 290 291 290 290 289 290 291 291 291 291 292 291
297 297 297 299 300 299 298 297 297 296 296 295 294 294 293 292 291 291 290 290 291 291 291 291 291 291 291 291 291 290 289 289 289 289 289 289 290 290
298 298 299 299 298 298 297 297 296 296 295 294 293 292 292 291 291 290 290 290 291 291 291 291 290 290 290 290 290 289 289 289 289 289 289 289 289 289
297 297 297 297 296 295 295 295 294 294 293 293 292 291 290 290 290 289 290 290 289 291 291 290 290 289 289 289 289 289 288 288 289 289 288 288 288 288
297 296 294 293 294 293 293 292 292 292 292 291 290 290 289 289 289 289 288 289 289 289 288 288 289 288 288 287 287 288 288 288 289 288 287 286 286 287
294 293 293 293 292 292 292 292 291 291 291 290 289 288 288 288 288 289 288 288 288 288 289 289 288 287 287 288 288 288 288 288 288 287 286 286 286 287
295 294 294 293 292 292 291 291 291 290 289 289 288 288 288 287 287 287 287 287 288 288 287 286 287 287 287 286 288 287 287 287 287 287 286 286 286 286
296 295 293 293 292 291 291 291 290 289 289 288 288 287 286 286 286 286 286 286 285 285 285 286 287 286 286 286 286 286 286 286 286 286 286 286 285 285
296 295 294 293 292 291 291 291 290 289 288 287 287 286 286 285 285 285 285 285 284 284 284 284 285 285 286 286 286 285 284 285 285 285 286 285 285 285
296 295 294 293 292 291 291 290 290 289 288 287 286 286 285 285 285 284 284 284 284 284 284 284 284 285 284 284 284 284 285 285 285 286 286 285 285 285
295 295 294 293 292 291 290 290 289 289 288 287 286 285 284 285 284 284 284 284 284 284 284 283 284 284 284 284 284 285 285 284 284 284 285 285 286 285
294 295 294 293 291 291 290 290 289 289 287 286 285 285 285 285 284 285 285 284 283 283 283 284 283 283 284 285 285 284 284 284 284 284 283 283 284 284

GFSNE_925_thetae_174.txt.gz
Theta_e
323 323 322 322 321 320 319 318 317 318 317 317 317 316 317 316 316 315 313 313 312 311 311 312 311 309 308 307 305 303 303 302 302 302 302 302 304 306
323 323 322 322 322 320 318 317 317 317 316 312 311 314 315 315 314 314 313 312 312 312 311 312 309 306 305 304 303 301 300 301 300 300 300 301 302 303
323 323 322 322 321 320 317 317 317 317 311 308 309 309 310 311 312 312 312 312 312 312 311 309 306 304 304 304 302 300 301 300 299 299 300 301 301 301
324 323 323 322 321 320 318 317 318 317 314 308 308 309 310 309 310 310 311 311 310 307 306 306 306 305 303 302 301 300 299 300 298 297 297 298 298 299
324 323 322 320 318 317 317 317 317 315 313 311 307 306 305 305 306 306 306 307 306 306 305 304 303 302 301 303 301 300 300 298 297 296 295 296 297 297
321 320 319 319 317 316 315 315 315 314 313 311 306 304 304 304 304 304 303 303 302 300 299 300 301 301 300 301 300 299 299 298 297 296 295 295 295 295
315 316 315 315 315 315 315 314 314 312 310 307 304 302 301 300 299 299 299 298 297 297 297 297 298 297 297 297 296 295 296 296 297 296 296 295 295 294
314 315 314 313 313 313 313 312 311 310 308 304 300 298 296 296 297 297 298 298 296 295 296 295 295 295 295 295 295 295 294 293 293 295 294 295 294 293
312 311 310 308 309 308 305 305 304 303 302 301 297 295 294 294 295 295 295 295 293 292 293 293 293 292 292 293 293 294 294 292 292 293 293 293 293 292
308 307 307 305 303 302 301 298 296 296 294 293 293 293 293 293 293 293 294 292 291 291 291 291 290 290 290 292 293 293 292 292 291 291 292 293 293 292
301 300 300 299 299 298 296 295 297 297 297 296 296 295 294 292 290 291 291 292 291 291 290 290 290 290 290 291 290 290 290 290 291 291 291 291 291 291
299 298 298 297 295 295 295 295 295 296 295 294 293 292 291 291 290 290 290 290 289 289 290 290 290 290 289 290 289 289 289 289 288 288 289 290 289 290
301 301 300 298 297 296 295 294 294 293 293 293 291 290 290 290 289 289 289 290 290 290 291 291 290 290 289 289 289 288 288 287 288 288 289 289 289 289
300 300 300 299 299 298 297 296 294 292 291 291 290 289 289 289 289 288 288 289 290 289 289 290 290 289 289 288 288 287 287 287 288 288 288 287 286 286
299 300 299 298 296 296 295 293 293 292 291 290 289 288 289 289 288 288 288 288 288 288 288 288 287 287 287 287 286 287 287 288 287 287 287 286 286 285
297 295 295 294 293 292 292 291 291 290 290 288 288 288 288 288 287 286 286 286 286 286 285 285 286 286 286 286 286 287 286 286 286 286 286 286 286 285
294 293 291 291 291 290 290 290 289 288 288 288 287 287 287 286 286 285 285 284 284 284 284 283 284 284 284 285 286 287 286 285 285 285 286 285 286 285
292 291 291 290 290 290 290 289 288 288 287 287 286 286 285 285 285 285 284 284 284 283 283 283 283 283 284 284 285 285 284 284 284 284 285 285 285 285
292 291 291 290 290 290 289 288 288 287 287 286 285 285 285 285 284 284 283 284 283 283 282 282 283 283 283 284 284 284 284 284 284 283 285 285 285 285
293 292 291 290 290 290 289 289 288 287 286 286 285 285 284 284 283 283 284 284 283 282 282 282 282 283 284 284 283 284 283 283 283 284 284 285 284 284
293 292 291 290 290 289 289 289 288 287 287 286 284 284 284 284 284 284 283 283 282 282 283 283 282 283 283 283 283 283 283 283 283 284 283 283 284 284
294 292 291 290 290 289 289 289 288 288 287 285 285 285 284 284 284 283 282 282 282 283 283 282 282 282 282 282 282 282 282 282 283 283 283 285 284 284
295 293 292 290 289 288 288 289 289 288 287 285 285 285 284 284 284 283 282 283 283 283 282 282 281 281 282 282 282 282 281 281 282 282 282 282 283 283